TimeCDT,TemperatureF,Dew PointF,Humidity,Sea Level PressureIn,VisibilityMPH,Wind Direction,Wind SpeedMPH,Gust SpeedMPH,PrecipitationIn,Events,Conditions,WindDirDegrees,DateUTC
12:15 AM,75.2,65.7,72,30.09,10.0,South,8.1,-,N/A,,Clear,180,2013-08-25 05:15:00
12:35 AM,74.7,65.7,73,30.09,10.0,South,6.9,-,N/A,,Clear,180,2013-08-25 05:35:00
12:55 AM,74.7,66.0,74,30.09,10.0,South,8.1,-,N/A,,Clear,180,2013-08-25 05:55:00
1:15 AM,74.7,66.2,75,30.09,10.0,South,8.1,-,N/A,,Clear,180,2013-08-25 06:15:00
1:35 AM,74.3,66.0,75,30.09,10.0,South,6.9,-,N/A,,Clear,190,2013-08-25 06:35:00
1:55 AM,74.7,65.7,73,30.09,10.0,South,8.1,-,N/A,,Clear,190,2013-08-25 06:55:00
2:15 AM,74.3,65.7,74,30.10,10.0,South,5.8,-,N/A,,Clear,190,2013-08-25 07:15:00
2:35 AM,73.6,65.8,77,30.11,10.0,South,5.8,-,N/A,,Clear,190,2013-08-25 07:35:00
2:55 AM,73.0,65.7,78,30.11,10.0,South,5.8,-,N/A,,Clear,180,2013-08-25 07:55:00
3:15 AM,72.5,65.7,79,30.11,10.0,South,5.8,-,N/A,,Clear,180,2013-08-25 08:15:00
3:35 AM,71.8,65.8,81,30.11,7.0,South,5.8,-,N/A,,Clear,170,2013-08-25 08:35:00
3:55 AM,71.6,65.8,82,30.11,7.0,South,6.9,-,N/A,,Clear,170,2013-08-25 08:55:00
4:15 AM,72.5,66.2,81,30.13,7.0,South,6.9,-,N/A,,Clear,190,2013-08-25 09:15:00
4:35 AM,72.9,65.7,78,30.13,10.0,South,6.9,-,N/A,,Clear,190,2013-08-25 09:35:00
4:55 AM,72.3,65.3,78,30.14,10.0,South,5.8,-,N/A,,Clear,190,2013-08-25 09:55:00
5:15 AM,71.1,65.1,81,30.14,7.0,South,5.8,-,N/A,,Clear,190,2013-08-25 10:15:00
5:35 AM,70.7,64.8,81,30.14,7.0,South,5.8,-,N/A,,Clear,190,2013-08-25 10:35:00
5:55 AM,70.2,64.6,82,30.14,7.0,South,4.6,-,N/A,,Clear,190,2013-08-25 10:55:00
6:15 AM,69.4,64.6,84,30.15,7.0,South,4.6,-,N/A,,Clear,170,2013-08-25 11:15:00
6:35 AM,69.4,64.4,84,30.16,7.0,South,4.6,-,N/A,,Clear,180,2013-08-25 11:35:00
6:55 AM,69.3,64.4,84,30.16,7.0,South,5.8,-,N/A,,Clear,180,2013-08-25 11:55:00
7:15 AM,70.9,64.6,80,30.16,7.0,South,6.9,-,N/A,,Clear,190,2013-08-25 12:15:00
7:35 AM,72.3,64.8,77,30.16,7.0,South,8.1,-,N/A,,Clear,190,2013-08-25 12:35:00
7:55 AM,73.8,65.3,75,30.16,10.0,South,10.4,-,N/A,,Clear,190,2013-08-25 12:55:00
8:15 AM,75.2,65.3,71,30.16,10.0,SSW,10.4,16.1,N/A,,Clear,200,2013-08-25 13:15:00
8:35 AM,76.5,65.7,69,30.16,10.0,SSW,9.2,-,N/A,,Clear,200,2013-08-25 13:35:00
8:55 AM,77.9,66.0,67,30.16,10.0,SSW,10.4,-,N/A,,Clear,210,2013-08-25 13:55:00
9:15 AM,79.7,66.4,64,30.15,10.0,SSW,15.0,-,N/A,,Clear,210,2013-08-25 14:15:00
9:35 AM,80.6,66.2,61,30.15,10.0,SSW,11.5,18.4,N/A,,Clear,210,2013-08-25 14:35:00
9:55 AM,81.5,66.4,60,30.15,10.0,SSW,10.4,21.9,N/A,,Clear,210,2013-08-25 14:55:00
10:15 AM,82.6,67.6,60,30.15,10.0,SSW,11.5,19.6,N/A,,Clear,200,2013-08-25 15:15:00
10:35 AM,83.1,67.5,59,30.15,10.0,SSW,13.8,18.4,N/A,,Clear,210,2013-08-25 15:35:00
10:55 AM,83.8,67.5,58,30.14,10.0,SW,13.8,20.7,N/A,,Clear,220,2013-08-25 15:55:00
11:15 AM,84.9,68.0,57,30.14,10.0,SSW,11.5,18.4,N/A,,Clear,210,2013-08-25 16:15:00
11:35 AM,86.0,67.8,54,30.14,10.0,SSW,15.0,18.4,N/A,,Clear,210,2013-08-25 16:35:00
11:55 AM,86.9,67.5,52,30.13,10.0,SSW,13.8,-,N/A,,Clear,200,2013-08-25 16:55:00
12:15 PM,87.6,66.7,50,30.12,10.0,SSW,16.1,19.6,N/A,,Clear,200,2013-08-25 17:15:00
12:35 PM,88.2,66.9,49,30.11,10.0,SSW,13.8,19.6,N/A,,Clear,200,2013-08-25 17:35:00
12:55 PM,88.7,67.3,49,30.11,10.0,South,12.7,19.6,N/A,,Clear,180,2013-08-25 17:55:00
1:15 PM,89.6,67.5,48,30.10,10.0,SSW,11.5,-,N/A,,Clear,200,2013-08-25 18:15:00
1:35 PM,89.8,67.6,48,30.10,10.0,SSW,13.8,19.6,N/A,,Clear,200,2013-08-25 18:35:00
1:55 PM,90.5,67.5,47,30.10,10.0,SSW,12.7,18.4,N/A,,Clear,210,2013-08-25 18:55:00
2:15 PM,90.7,66.9,45,30.10,10.0,SSW,11.5,20.7,N/A,,Clear,200,2013-08-25 19:15:00
2:35 PM,90.9,66.6,45,30.09,10.0,SSW,9.2,19.6,N/A,,Clear,200,2013-08-25 19:35:00
2:55 PM,91.6,67.3,45,30.09,10.0,South,12.7,18.4,N/A,,Clear,190,2013-08-25 19:55:00
3:15 PM,91.6,66.4,43,30.09,10.0,South,13.8,-,N/A,,Clear,190,2013-08-25 20:15:00
3:35 PM,91.8,67.1,44,30.08,10.0,South,13.8,18.4,N/A,,Clear,190,2013-08-25 20:35:00
3:55 PM,92.1,66.6,43,30.08,10.0,SSW,10.4,16.1,N/A,,Clear,210,2013-08-25 20:55:00
4:15 PM,92.1,66.9,43,30.07,10.0,South,13.8,-,N/A,,Clear,180,2013-08-25 21:15:00
4:35 PM,92.3,66.6,43,30.07,10.0,South,11.5,17.3,N/A,,Clear,190,2013-08-25 21:35:00
4:55 PM,92.1,65.8,42,30.07,10.0,SSW,12.7,18.4,N/A,,Clear,210,2013-08-25 21:55:00
5:15 PM,91.9,66.4,43,30.07,10.0,South,12.7,-,N/A,,Clear,190,2013-08-25 22:15:00
5:35 PM,91.6,66.2,43,30.07,10.0,South,10.4,17.3,N/A,,Clear,190,2013-08-25 22:35:00
5:55 PM,91.4,67.3,45,30.07,10.0,SSW,6.9,-,N/A,,Clear,200,2013-08-25 22:55:00
6:15 PM,90.7,66.4,45,30.07,10.0,SSW,10.4,-,N/A,,Clear,200,2013-08-25 23:15:00
6:35 PM,89.8,66.2,46,30.07,10.0,South,10.4,-,N/A,,Clear,190,2013-08-25 23:35:00
6:55 PM,88.9,65.8,46,30.06,10.0,South,9.2,-,N/A,,Clear,190,2013-08-25 23:55:00
7:15 PM,87.6,66.0,49,30.06,10.0,South,9.2,-,N/A,,Clear,190,2013-08-26 00:15:00
7:35 PM,85.8,66.4,52,30.07,10.0,South,8.1,-,N/A,,Clear,180,2013-08-26 00:35:00
7:55 PM,84.6,66.2,54,30.07,10.0,South,6.9,-,N/A,,Clear,190,2013-08-26 00:55:00
8:15 PM,82.9,65.8,56,30.06,10.0,South,8.1,-,N/A,,Clear,190,2013-08-26 01:15:00
8:35 PM,82.0,65.7,57,30.07,10.0,South,6.9,-,N/A,,Clear,190,2013-08-26 01:35:00
8:55 PM,81.0,65.7,60,30.08,10.0,South,6.9,-,N/A,,Clear,190,2013-08-26 01:55:00
9:15 PM,79.7,66.2,63,30.09,10.0,SSW,6.9,-,N/A,,Clear,200,2013-08-26 02:15:00
9:35 PM,79.7,66.4,64,30.09,10.0,South,8.1,-,N/A,,Clear,190,2013-08-26 02:35:00
9:55 PM,78.4,67.1,68,30.09,10.0,SSW,5.8,-,N/A,,Clear,200,2013-08-26 02:55:00
10:15 PM,77.0,67.5,72,30.10,10.0,SSW,5.8,-,N/A,,Clear,200,2013-08-26 03:15:00
10:35 PM,75.6,67.6,76,30.10,10.0,SSW,4.6,-,N/A,,Clear,200,2013-08-26 03:35:00
10:55 PM,73.8,67.6,81,30.10,10.0,South,5.8,-,N/A,,Clear,190,2013-08-26 03:55:00
11:15 PM,74.3,68.0,81,30.10,10.0,South,5.8,-,N/A,,Clear,190,2013-08-26 04:15:00
11:35 PM,73.9,68.0,82,30.10,10.0,South,6.9,-,N/A,,Clear,180,2013-08-26 04:35:00
11:55 PM,74.1,67.6,80,30.10,10.0,South,5.8,-,N/A,,Clear,170,2013-08-26 04:55:00